Location: Monfort
(47.1967°N, 0.2115°W)
Time: 12:16:07
(UTC+00:00)

NOSS 2-1 (E) - Pass Details

Date: 24 October 2020
Orbit: 440 x 1762 km, 63.3° (Epoch: 23 November)

Event Time Altitude Azimuth Distance (km) Brightness Sun altitude
Rises 17:19:56 0° 235° (SW) 2,435 8.1 -4.7°
Reaches altitude 10° 17:22:02 10° 243° (WSW) 1,554 7.2 -5.0°
Maximum altitude 17:25:13 43° 317° (NW) 654 4.0 -5.5°
Drops below altitude 10° 17:28:45 10° 30° (NNE) 1,720 5.5 -6.1°
Enters shadow 17:31:00 - 37° (NE) 2,661 6.4 -6.5°
